Regional Weather Roundup
Issued by NWS

Home | Current Version | Previous Version | Graphics & Text | Print | Product List | Glossary On
Versions: 1 2 3 4 5 6 7 8 9 10 11 12 13 14 15 16 17 18 19 20 21 22 23 24 25 26 27 28 29 30 31 32 33 34 35 36 37 38 39 40 41 42 43 44 45 46 47 48 49 50
000
ASUS45 KCYS 301910
RWRWY

WYOMING REGIONAL WEATHER ROUNDUP
NATIONAL WEATHER SERVICE CHEYENNE WY
100 PM MDT SUN AUG 30 2015

NOTE:  "FAIR" INDICATES FEW OR NO CLOUDS BELOW 12,000 FEET
WITH NO SIGNIFICANT WEATHER AND/OR OBSTRUCTIONS TO VISIBILITY.

WYZ001-302000-
YELLOWSTONE NATIONAL PARK

CITY           SKY/WX    TMP DP  RH WIND       PRES   REMARKS
LK YELLOWSTONE   N/A     61  37  41 VRB7G21   30.19F
W YELLOWSTONE  NOT AVBL

$$
WYZ002>013-054>058-071-098>099-302000-
NORTHERN WYOMING

CITY           SKY/WX    TMP DP  RH WIND       PRES   REMARKS
JACKSON        PTSUNNY   73  43  33 S13G20    30.10F
CODY           FAIR      73  52  46 NE14      29.94F
GREYBULL       FAIR      84  42  22 CALM      29.84F
WORLAND        FAIR      90  45  21 SW13      29.84F
SHERIDAN       FAIR      81  50  33 NW16      29.91F
BUFFALO        FAIR      77  47  34 N22G30    29.95R
GILLETTE       FAIR      91  42  18 W8        29.86F
HULETT         FAIR      90  41  18 CALM      29.88F
NEWCASTLE      FAIR      90  36  14 MISG      29.90F

$$
WYZ014>020-022>026-101>103-302000-
CENTRAL WYOMING

CITY           SKY/WX    TMP DP  RH WIND       PRES   REMARKS
BIG PINEY      FAIR      79  38  22 W20G30    30.13F
PINEDALE       FAIR      75  36  23 S13G18    30.15F
DUBOIS         FAIR      73  34  23 W21G35    30.09F
LANDER         FAIR      87  39  18 SW10G21   29.96F
RIVERTON       FAIR      88  37  16 W18       29.97F
CASPER         FAIR      91  37  15 SW17G29   29.99F
DOUGLAS        FAIR      96  37  12 W17G30    29.95F HX  91

$$
WYZ021-027>030-104>119-302000-
SOUTHERN WYOMING

CITY           SKY/WX    TMP DP  RH WIND       PRES   REMARKS
EVANSTON       FAIR      78  37  22 SW28G37   30.15F
KEMMERER       FAIR      73  36  25 W14G22    30.17F
FORT BRIDGER   CLEAR     81  39  22 SW24G32   30.18F
ROCK SPRINGS   PTSUNNY   74  43  32 NW15      30.15S
DIXON          FAIR      83  35  18 W15       30.19F
RAWLINS        PTSUNNY   81  40  23 W23G32    30.17R
SARATOGA       FAIR      84  36  17 SW20G26   30.19F
LARAMIE        FAIR      84  36  18 SW10G24   30.19F
CHEYENNE       FAIR      90  34  13 W10G23    30.10F
TORRINGTON     FAIR      92  45  19 SE9       29.92F
PINE BLUFFS    FAIR      93  32  11 W12G24    30.03F

$$


USA.gov is the U.S. government's official web portal to all federal, state and local government web resources and services.